Saint Bonnet de Bellac- Haute Vienne - France
Donnes mto: mercredi, 27/06/2012
Date Horaire Temp. E. Hum. E. P.atmo. Pluie Vent Direction Direction Ensoleilleme Solaire P. de rose Temp au vent Rafales
27/06/2012 00:00 19,2 C 84 % 1021,6 hPa 0,0 mm 0,0 km/h (0 Bft) N-NE 22 0 min 0 W/m 16,4 C 19,2 C 0,0 km/h (0 Bft)
27/06/2012 00:10 19,0 C 85 % 1021,6 hPa 0,0 mm 0,0 km/h (0 Bft) N-NE 22 0 min 0 W/m 16,4 C 19,0 C 0,0 km/h (0 Bft)
27/06/2012 00:20 18,8 C 85 % 1021,6 hPa 0,0 mm 0,0 km/h (0 Bft) N-NE 22 0 min 0 W/m 16,2 C 18,8 C 0,0 km/h (0 Bft)
27/06/2012 00:30 18,6 C 85 % 1021,7 hPa 0,0 mm 0,0 km/h (0 Bft) N-NE 22 0 min 0 W/m 16,0 C 18,6 C 0,0 km/h (0 Bft)
27/06/2012 00:40 18,4 C 86 % 1021,6 hPa 0,0 mm 0,0 km/h (0 Bft) N-NE 22 0 min 0 W/m 16,0 C 18,4 C 0,0 km/h (0 Bft)
27/06/2012 00:50 18,1 C 86 % 1021,6 hPa 0,0 mm 0,0 km/h (0 Bft) N-NE 22 0 min 0 W/m 15,7 C 18,1 C 0,0 km/h (0 Bft)
27/06/2012 01:00 17,9 C 86 % 1021,7 hPa 0,0 mm 0,0 km/h (0 Bft) N-NE 22 0 min 0 W/m 15,5 C 17,9 C 0,0 km/h (0 Bft)
27/06/2012 01:10 17,8 C 86 % 1021,7 hPa 0,0 mm 0,0 km/h (0 Bft) N-NE 22 0 min 0 W/m 15,4 C 17,8 C 0,0 km/h (0 Bft)
27/06/2012 01:20 17,7 C 87 % 1021,6 hPa 0,0 mm 0,0 km/h (0 Bft) N-NE 22 0 min 0 W/m 15,5 C 17,7 C 0,0 km/h (0 Bft)
27/06/2012 01:30 17,6 C 87 % 1021,6 hPa 0,0 mm 0,0 km/h (0 Bft) N-NE 22 0 min 0 W/m 15,4 C 17,6 C 0,0 km/h (0 Bft)
27/06/2012 01:40 17,5 C 87 % 1021,5 hPa 0,0 mm 0,0 km/h (0 Bft) N-NE 22 0 min 0 W/m 15,3 C 17,5 C 0,0 km/h (0 Bft)
27/06/2012 01:50 17,4 C 88 % 1021,5 hPa 0,0 mm 0,0 km/h (0 Bft) N-NE 22 0 min 0 W/m 15,4 C 17,4 C 0,0 km/h (0 Bft)
27/06/2012 02:00 17,4 C 88 % 1021,4 hPa 0,0 mm 0,0 km/h (0 Bft) N-NE 22 0 min 0 W/m 15,4 C 17,4 C 0,0 km/h (0 Bft)
27/06/2012 02:10 17,3 C 88 % 1021,4 hPa 0,0 mm 0,0 km/h (0 Bft) N-NE 22 0 min 0 W/m 15,3 C 17,3 C 0,0 km/h (0 Bft)
27/06/2012 02:20 17,2 C 89 % 1021,3 hPa 0,0 mm 0,0 km/h (0 Bft) N-NE 22 0 min 0 W/m 15,4 C 17,2 C 0,0 km/h (0 Bft)
27/06/2012 02:30 17,1 C 89 % 1021,2 hPa 0,0 mm 0,0 km/h (0 Bft) N-NE 22 0 min 0 W/m 15,3 C 17,1 C 0,0 km/h (0 Bft)
27/06/2012 02:40 17,0 C 89 % 1021,2 hPa 0,0 mm 0,0 km/h (0 Bft) N-NE 22 0 min 0 W/m 15,2 C 17,0 C 0,0 km/h (0 Bft)
27/06/2012 02:50 16,9 C 89 % 1021,1 hPa 0,0 mm 0,0 km/h (0 Bft) N-NE 22 0 min 0 W/m 15,1 C 16,9 C 0,0 km/h (0 Bft)
27/06/2012 03:02 17,1 C 89 % 1020,9 hPa 0,0 mm 0,0 km/h (0 Bft) NE 45 0 min 0 W/m 15,3 C 17,1 C 0,0 km/h (0 Bft)
27/06/2012 03:10 17,1 C 90 % 1020,7 hPa 0,0 mm 0,0 km/h (0 Bft) E-NE 67 0 min 0 W/m 15,4 C 17,1 C 0,0 km/h (0 Bft)
27/06/2012 03:20 17,1 C 90 % 1020,6 hPa 0,0 mm 0,0 km/h (0 Bft) E-NE 67 0 min 0 W/m 15,4 C 17,1 C 0,0 km/h (0 Bft)
27/06/2012 03:30 17,0 C 90 % 1020,5 hPa 0,0 mm 0,0 km/h (0 Bft) E-NE 67 0 min 0 W/m 15,3 C 17,0 C 0,0 km/h (0 Bft)
27/06/2012 03:40 16,8 C 90 % 1020,4 hPa 0,0 mm 0,0 km/h (0 Bft) E-NE 67 0 min 0 W/m 15,1 C 16,8 C 0,0 km/h (0 Bft)
27/06/2012 03:50 16,8 C 90 % 1020,4 hPa 0,0 mm 0,0 km/h (0 Bft) E-SE 112 0 min 0 W/m 15,1 C 16,8 C 0,0 km/h (0 Bft)
27/06/2012 04:00 16,8 C 90 % 1020,3 hPa 0,0 mm 0,0 km/h (0 Bft) E 90 0 min 0 W/m 15,1 C 16,8 C 0,0 km/h (0 Bft)
27/06/2012 04:10 16,6 C 91 % 1020,3 hPa 0,0 mm 0,0 km/h (0 Bft) E 90 0 min 0 W/m 15,1 C 16,6 C 0,0 km/h (0 Bft)
27/06/2012 04:20 16,5 C 91 % 1020,3 hPa 0,0 mm 0,0 km/h (0 Bft) E 90 0 min 0 W/m 15,0 C 16,5 C 0,0 km/h (0 Bft)
27/06/2012 04:30 16,3 C 91 % 1020,3 hPa 0,0 mm 0,0 km/h (0 Bft) E 90 0 min 0 W/m 14,8 C 16,3 C 0,0 km/h (0 Bft)
27/06/2012 04:40 16,2 C 91 % 1020,1 hPa 0,0 mm 0,0 km/h (0 Bft) E 90 0 min 0 W/m 14,7 C 16,2 C 0,0 km/h (0 Bft)
27/06/2012 04:50 16,1 C 91 % 1019,8 hPa 0,0 mm 0,0 km/h (0 Bft) E 90 0 min 0 W/m 14,6 C 16,1 C 0,0 km/h (0 Bft)
27/06/2012 05:00 16,0 C 91 % 1019,7 hPa 0,0 mm 0,0 km/h (0 Bft) E 90 0 min 0 W/m 14,5 C 16,0 C 0,0 km/h (0 Bft)
27/06/2012 05:10 15,9 C 91 % 1019,7 hPa 0,0 mm 0,0 km/h (0 Bft) E 90 0 min 0 W/m 14,4 C 15,9 C 0,0 km/h (0 Bft)
27/06/2012 05:20 15,9 C 91 % 1019,5 hPa 0,0 mm 0,0 km/h (0 Bft) E-SE 112 0 min 0 W/m 14,4 C 15,9 C 0,0 km/h (0 Bft)
27/06/2012 05:30 15,8 C 91 % 1019,5 hPa 0,0 mm 0,0 km/h (0 Bft) E-SE 112 0 min 0 W/m 14,3 C 15,8 C 0,0 km/h (0 Bft)
27/06/2012 05:40 15,8 C 91 % 1019,5 hPa 0,0 mm 2,5 km/h (1 Bft) E-SE 112 0 min 0 W/m 14,3 C 15,8 C 4,3 km/h (1 Bft)
27/06/2012 05:50 15,9 C 92 % 1019,5 hPa 0,0 mm 0,0 km/h (0 Bft) SE 135 0 min 0 W/m 14,6 C 15,9 C 0,0 km/h (0 Bft)
27/06/2012 06:00 15,8 C 92 % 1019,7 hPa 0,0 mm 0,0 km/h (0 Bft) SE 135 0 min 0 W/m 14,5 C 15,8 C 0,0 km/h (0 Bft)
27/06/2012 06:10 15,8 C 92 % 1019,8 hPa 0,0 mm 0,0 km/h (0 Bft) SE 135 0 min 0 W/m 14,5 C 15,8 C 0,0 km/h (0 Bft)
27/06/2012 06:20 15,7 C 92 % 1019,6 hPa 0,0 mm 0,0 km/h (0 Bft) SE 135 0 min 0 W/m 14,4 C 15,7 C 0,0 km/h (0 Bft)
27/06/2012 06:30 15,7 C 92 % 1019,4 hPa 0,0 mm 0,7 km/h (0 Bft) E 90 0 min 0 W/m 14,4 C 15,7 C 3,6 km/h (1 Bft)
27/06/2012 06:40 15,8 C 92 % 1019,4 hPa 0,0 mm 0,0 km/h (0 Bft) SE 135 0 min 0 W/m 14,5 C 15,8 C 3,6 km/h (1 Bft)
27/06/2012 06:50 15,8 C 92 % 1019,3 hPa 0,0 mm 0,0 km/h (0 Bft) E-SE 112 0 min 0 W/m 14,5 C 15,8 C 0,0 km/h (0 Bft)
27/06/2012 07:00 16,0 C 92 % 1019,2 hPa 0,0 mm 0,7 km/h (0 Bft) E-SE 112 0 min 0 W/m 14,7 C 16,0 C 0,7 km/h (0 Bft)
27/06/2012 07:10 16,3 C 92 % 1019,2 hPa 0,0 mm 0,4 km/h (0 Bft) E-SE 112 0 min 0 W/m 15,0 C 16,3 C 3,6 km/h (1 Bft)
27/06/2012 07:20 16,4 C 92 % 1019,2 hPa 0,0 mm 4,3 km/h (1 Bft) E-SE 112 0 min 0 W/m 15,1 C 16,4 C 4,3 km/h (1 Bft)
27/06/2012 07:30 16,6 C 93 % 1019,2 hPa 0,0 mm 0,7 km/h (0 Bft) E-SE 112 0 min 0 W/m 15,5 C 16,6 C 6,1 km/h (2 Bft)
27/06/2012 07:40 16,8 C 93 % 1019,2 hPa 0,0 mm 0,0 km/h (0 Bft) E-SE 112 0 min 0 W/m 15,7 C 16,8 C 0,0 km/h (0 Bft)
27/06/2012 07:50 17,1 C 93 % 1019,2 hPa 0,0 mm 0,0 km/h (0 Bft) E-SE 112 0 min 0 W/m 16,0 C 17,1 C 3,2 km/h (1 Bft)
27/06/2012 08:00 17,4 C 93 % 1019,2 hPa 0,0 mm 0,0 km/h (0 Bft) E-NE 67 0 min 0 W/m 16,3 C 17,4 C 0,0 km/h (0 Bft)
27/06/2012 08:10 17,8 C 93 % 1019,2 hPa 0,0 mm 2,2 km/h (1 Bft) E 90 0 min 0 W/m 16,7 C 17,8 C 3,6 km/h (1 Bft)
27/06/2012 08:20 18,2 C 93 % 1019,1 hPa 0,0 mm 2,5 km/h (1 Bft) E-NE 67 0 min 0 W/m 17,0 C 18,2 C 7,2 km/h (2 Bft)
27/06/2012 08:30 18,6 C 93 % 1019,2 hPa 0,0 mm 1,4 km/h (1 Bft) E-NE 67 0 min 0 W/m 17,4 C 18,6 C 7,2 km/h (2 Bft)
27/06/2012 08:40 19,1 C 92 % 1019,3 hPa 0,0 mm 2,5 km/h (1 Bft) E-NE 67 0 min 0 W/m 17,8 C 19,1 C 4,0 km/h (1 Bft)
27/06/2012 08:50 19,8 C 92 % 1019,2 hPa 0,0 mm 1,1 km/h (1 Bft) NE 45 0 min 0 W/m 18,5 C 19,8 C 1,4 km/h (1 Bft)
27/06/2012 09:00 20,4 C 92 % 1019,0 hPa 0,0 mm 4,3 km/h (1 Bft) NE 45 0 min 0 W/m 19,1 C 20,4 C 7,6 km/h (2 Bft)
27/06/2012 09:10 20,8 C 89 % 1019,1 hPa 0,0 mm 0,0 km/h (0 Bft) E 90 0 min 0 W/m 18,9 C 20,8 C 2,9 km/h (1 Bft)
27/06/2012 09:20 21,4 C 87 % 1019,0 hPa 0,0 mm 4,3 km/h (1 Bft) E-NE 67 0 min 0 W/m 19,1 C 21,4 C 5,8 km/h (2 Bft)
27/06/2012 09:30 22,2 C 83 % 1018,9 hPa 0,0 mm 2,5 km/h (1 Bft) NE 45 0 min 0 W/m 19,2 C 22,2 C 6,5 km/h (2 Bft)
27/06/2012 09:40 22,8 C 79 % 1018,8 hPa 0,0 mm 5,4 km/h (2 Bft) E-NE 67 0 min 0 W/m 19,0 C 22,8 C 5,4 km/h (2 Bft)
27/06/2012 09:50 22,8 C 78 % 1018,8 hPa 0,0 mm 3,6 km/h (1 Bft) E 90 0 min 0 W/m 18,8 C 22,8 C 3,6 km/h (1 Bft)
27/06/2012 10:00 22,8 C 78 % 1018,5 hPa 0,0 mm 4,3 km/h (1 Bft) NE 45 0 min 0 W/m 18,8 C 22,8 C 10,1 km/h (2 Bft)
27/06/2012 10:10 23,3 C 78 % 1018,5 hPa 0,0 mm 9,0 km/h (2 Bft) E-NE 67 0 min 0 W/m 19,2 C 23,3 C 11,9 km/h (2 Bft)
27/06/2012 10:20 23,5 C 76 % 1018,6 hPa 0,0 mm 4,7 km/h (1 Bft) E-NE 67 0 min 0 W/m 19,0 C 23,5 C 9,0 km/h (2 Bft)
27/06/2012 10:30 23,8 C 76 % 1018,6 hPa 0,0 mm 4,0 km/h (1 Bft) E-NE 67 0 min 0 W/m 19,3 C 23,8 C 6,5 km/h (2 Bft)
27/06/2012 10:40 24,3 C 75 % 1018,5 hPa 0,0 mm 2,5 km/h (1 Bft) E-SE 112 0 min 0 W/m 19,6 C 24,3 C 3,2 km/h (1 Bft)
27/06/2012 10:50 24,9 C 73 % 1018,3 hPa 0,0 mm 3,2 km/h (1 Bft) E-SE 112 0 min 0 W/m 19,7 C 24,9 C 4,7 km/h (1 Bft)
27/06/2012 11:00 25,4 C 72 % 1018,3 hPa 0,0 mm 3,2 km/h (1 Bft) E-NE 67 0 min 0 W/m 20,0 C 25,4 C 3,6 km/h (1 Bft)
27/06/2012 11:10 26,1 C 70 % 1018,2 hPa 0,0 mm 2,2 km/h (1 Bft) E-SE 112 0 min 0 W/m 20,2 C 26,1 C 3,6 km/h (1 Bft)
27/06/2012 11:20 26,6 C 69 % 1018,1 hPa 0,0 mm 2,5 km/h (1 Bft) N-NE 22 0 min 0 W/m 20,4 C 26,6 C 2,9 km/h (1 Bft)
27/06/2012 11:30 26,9 C 68 % 1018,0 hPa 0,0 mm 2,9 km/h (1 Bft) N-NE 22 0 min 0 W/m 20,5 C 26,9 C 4,0 km/h (1 Bft)
27/06/2012 11:40 27,4 C 66 % 1017,9 hPa 0,0 mm 5,8 km/h (2 Bft) NE 45 0 min 0 W/m 20,5 C 27,4 C 6,1 km/h (2 Bft)
27/06/2012 11:50 27,9 C 66 % 1017,9 hPa 0,0 mm 4,0 km/h (1 Bft) E-NE 67 0 min 0 W/m 20,9 C 27,9 C 7,9 km/h (2 Bft)
27/06/2012 12:00 28,1 C 64 % 1017,9 hPa 0,0 mm 1,4 km/h (1 Bft) E-SE 112 0 min 0 W/m 20,6 C 28,1 C 4,3 km/h (1 Bft)
27/06/2012 12:10 28,4 C 65 % 1017,8 hPa 0,0 mm 1,4 km/h (1 Bft) E-NE 67 0 min 0 W/m 21,2 C 28,4 C 4,3 km/h (1 Bft)
27/06/2012 12:20 28,9 C 63 % 1017,7 hPa 0,0 mm 2,5 km/h (1 Bft) NE 45 0 min 0 W/m 21,1 C 28,9 C 3,6 km/h (1 Bft)
27/06/2012 12:30 29,4 C 63 % 1017,7 hPa 0,0 mm 2,5 km/h (1 Bft) E-NE 67 0 min 0 W/m 21,6 C 29,4 C 4,3 km/h (1 Bft)
27/06/2012 12:40 29,8 C 61 % 1017,5 hPa 0,0 mm 2,9 km/h (1 Bft) NE 45 0 min 0 W/m 21,4 C 29,8 C 4,3 km/h (1 Bft)
27/06/2012 12:50 30,3 C 59 % 1017,4 hPa 0,0 mm 4,3 km/h (1 Bft) E-NE 67 0 min 0 W/m 21,4 C 30,3 C 6,5 km/h (2 Bft)
27/06/2012 13:00 30,5 C 58 % 1017,3 hPa 0,0 mm 1,8 km/h (1 Bft) N-NE 22 0 min 0 W/m 21,3 C 30,5 C 3,6 km/h (1 Bft)
27/06/2012 13:10 30,4 C 57 % 1017,1 hPa 0,0 mm 4,3 km/h (1 Bft) E-NE 67 0 min 0 W/m 20,9 C 30,4 C 7,9 km/h (2 Bft)
27/06/2012 13:20 30,2 C 57 % 1017,0 hPa 0,0 mm 4,0 km/h (1 Bft) N 360 0 min 0 W/m 20,7 C 30,2 C 7,2 km/h (2 Bft)
27/06/2012 13:30 30,3 C 57 % 1016,8 hPa 0,0 mm 3,2 km/h (1 Bft) NE 45 0 min 0 W/m 20,8 C 30,3 C 7,2 km/h (2 Bft)
27/06/2012 13:40 30,3 C 57 % 1016,6 hPa 0,0 mm 2,5 km/h (1 Bft) NE 45 0 min 0 W/m 20,8 C 30,3 C 6,1 km/h (2 Bft)
27/06/2012 13:50 30,4 C 58 % 1016,5 hPa 0,0 mm 1,1 km/h (1 Bft) E-SE 112 0 min 0 W/m 21,2 C 30,4 C 4,0 km/h (1 Bft)
27/06/2012 14:00 30,8 C 58 % 1016,5 hPa 0,0 mm 2,9 km/h (1 Bft) E 90 0 min 0 W/m 21,6 C 30,8 C 7,2 km/h (2 Bft)
27/06/2012 14:10 30,8 C 56 % 1016,3 hPa 0,0 mm 5,0 km/h (1 Bft) NE 45 0 min 0 W/m 21,0 C 30,8 C 7,9 km/h (2 Bft)
27/06/2012 14:20 31,1 C 56 % 1016,2 hPa 0,0 mm 6,1 km/h (2 Bft) N-NE 22 0 min 0 W/m 21,3 C 31,1 C 6,1 km/h (2 Bft)
27/06/2012 14:30 31,3 C 56 % 1016,1 hPa 0,0 mm 5,4 km/h (2 Bft) NE 45 0 min 0 W/m 21,4 C 31,3 C 10,4 km/h (2 Bft)
27/06/2012 14:40 31,3 C 55 % 1016,0 hPa 0,0 mm 5,8 km/h (2 Bft) E-NE 67 0 min 0 W/m 21,2 C 31,3 C 8,3 km/h (2 Bft)
27/06/2012 14:50 31,5 C 54 % 1015,8 hPa 0,0 mm 3,6 km/h (1 Bft) N-NE 22 0 min 0 W/m 21,0 C 31,5 C 8,3 km/h (2 Bft)
27/06/2012 15:00 31,8 C 55 % 1015,7 hPa 0,0 mm 4,7 km/h (1 Bft) E-NE 67 0 min 0 W/m 21,6 C 31,8 C 4,7 km/h (1 Bft)
27/06/2012 15:10 31,9 C 54 % 1015,5 hPa 0,0 mm 1,8 km/h (1 Bft) NE 45 0 min 0 W/m 21,4 C 31,9 C 4,0 km/h (1 Bft)
27/06/2012 15:20 32,1 C 54 % 1015,6 hPa 0,0 mm 1,8 km/h (1 Bft) E-NE 67 0 min 0 W/m 21,6 C 32,1 C 3,6 km/h (1 Bft)
27/06/2012 15:30 32,2 C 54 % 1015,5 hPa 0,0 mm 1,1 km/h (1 Bft) NE 45 0 min 0 W/m 21,7 C 32,2 C 3,6 km/h (1 Bft)
27/06/2012 15:40 32,3 C 52 % 1015,3 hPa 0,0 mm 2,5 km/h (1 Bft) SE 135 0 min 0 W/m 21,2 C 32,3 C 4,3 km/h (1 Bft)
27/06/2012 15:50 32,4 C 53 % 1015,2 hPa 0,0 mm 3,6 km/h (1 Bft) E-NE 67 0 min 0 W/m 21,6 C 32,4 C 3,6 km/h (1 Bft)
27/06/2012 16:00 32,6 C 53 % 1015,1 hPa 0,0 mm 4,0 km/h (1 Bft) NE 45 0 min 0 W/m 21,7 C 32,6 C 7,6 km/h (2 Bft)
27/06/2012 16:10 32,8 C 52 % 1014,9 hPa 0,0 mm 7,6 km/h (2 Bft) N-NE 22 0 min 0 W/m 21,6 C 32,8 C 8,6 km/h (2 Bft)
27/06/2012 16:20 32,8 C 52 % 1014,8 hPa 0,0 mm 4,0 km/h (1 Bft) N-NE 22 0 min 0 W/m 21,6 C 32,8 C 6,1 km/h (2 Bft)
27/06/2012 16:30 33,0 C 52 % 1014,6 hPa 0,0 mm 3,6 km/h (1 Bft) E 90 0 min 0 W/m 21,8 C 33,0 C 3,6 km/h (1 Bft)
27/06/2012 16:40 32,9 C 51 % 1014,7 hPa 0,0 mm 2,2 km/h (1 Bft) E-SE 112 0 min 0 W/m 21,4 C 32,9 C 3,6 km/h (1 Bft)
27/06/2012 16:50 32,5 C 50 % 1014,4 hPa 0,0 mm 0,0 km/h (0 Bft) SE 135 0 min 0 W/m 20,7 C 32,5 C 0,0 km/h (0 Bft)
27/06/2012 17:00 32,3 C 52 % 1014,3 hPa 0,0 mm 0,0 km/h (0 Bft) N-NE 22 0 min 0 W/m 21,2 C 32,3 C 0,0 km/h (0 Bft)
27/06/2012 17:10 32,4 C 52 % 1014,2 hPa 0,0 mm 0,0 km/h (0 Bft) NE 45 0 min 0 W/m 21,2 C 32,4 C 0,0 km/h (0 Bft)
27/06/2012 17:20 32,8 C 52 % 1013,9 hPa 0,0 mm 1,1 km/h (1 Bft) NE 45 0 min 0 W/m 21,6 C 32,8 C 3,2 km/h (1 Bft)
27/06/2012 17:30 33,4 C 51 % 1013,8 hPa 0,0 mm 1,1 km/h (1 Bft) E-NE 67 0 min 0 W/m 21,8 C 33,4 C 4,3 km/h (1 Bft)
27/06/2012 17:40 33,7 C 49 % 1013,6 hPa 0,0 mm 0,7 km/h (0 Bft) NE 45 0 min 0 W/m 21,5 C 33,7 C 4,3 km/h (1 Bft)
27/06/2012 17:50 33,8 C 49 % 1013,4 hPa 0,0 mm 2,2 km/h (1 Bft) N 360 0 min 0 W/m 21,6 C 33,8 C 4,3 km/h (1 Bft)
27/06/2012 18:00 33,7 C 49 % 1013,4 hPa 0,0 mm 2,2 km/h (1 Bft) E-NE 67 0 min 0 W/m 21,5 C 33,7 C 4,0 km/h (1 Bft)
27/06/2012 18:10 33,7 C 50 % 1013,4 hPa 0,0 mm 1,8 km/h (1 Bft) NE 45 0 min 0 W/m 21,8 C 33,7 C 1,8 km/h (1 Bft)
27/06/2012 18:20 33,8 C 49 % 1013,3 hPa 0,0 mm 2,9 km/h (1 Bft) N-NE 22 0 min 0 W/m 21,6 C 33,8 C 6,1 km/h (2 Bft)
27/06/2012 18:30 33,9 C 49 % 1013,0 hPa 0,0 mm 1,1 km/h (1 Bft) N-NE 22 0 min 0 W/m 21,6 C 33,9 C 3,2 km/h (1 Bft)
27/06/2012 18:40 34,0 C 49 % 1012,9 hPa 0,0 mm 2,9 km/h (1 Bft) NE 45 0 min 0 W/m 21,7 C 34,0 C 4,3 km/h (1 Bft)
27/06/2012 18:50 34,0 C 51 % 1013,0 hPa 0,0 mm 2,5 km/h (1 Bft) N-NO 337 0 min 0 W/m 22,4 C 34,0 C 6,8 km/h (2 Bft)
27/06/2012 19:00 33,9 C 53 % 1012,9 hPa 0,0 mm 4,7 km/h (1 Bft) NE 45 0 min 0 W/m 22,9 C 33,9 C 4,7 km/h (1 Bft)
27/06/2012 19:10 33,8 C 54 % 1012,6 hPa 0,0 mm 2,5 km/h (1 Bft) NE 45 0 min 0 W/m 23,2 C 33,8 C 6,1 km/h (2 Bft)
27/06/2012 19:20 33,4 C 54 % 1012,6 hPa 0,0 mm 1,1 km/h (1 Bft) NE 45 0 min 0 W/m 22,8 C 33,4 C 7,6 km/h (2 Bft)
27/06/2012 19:30 32,6 C 55 % 1012,3 hPa 0,0 mm 1,8 km/h (1 Bft) NE 45 0 min 0 W/m 22,4 C 32,6 C 6,1 km/h (2 Bft)
27/06/2012 19:40 31,9 C 57 % 1012,2 hPa 0,0 mm 1,4 km/h (1 Bft) E-NE 67 0 min 0 W/m 22,3 C 31,9 C 4,3 km/h (1 Bft)
27/06/2012 19:50 31,4 C 58 % 1012,2 hPa 0,0 mm 0,0 km/h (0 Bft) NE 45 0 min 0 W/m 22,1 C 31,4 C 0,0 km/h (0 Bft)
27/06/2012 20:00 30,7 C 60 % 1012,2 hPa 0,0 mm 0,7 km/h (0 Bft) E-NE 67 0 min 0 W/m 22,0 C 30,7 C 3,2 km/h (1 Bft)
27/06/2012 20:10 30,3 C 61 % 1012,1 hPa 0,0 mm 0,0 km/h (0 Bft) E-NE 67 0 min 0 W/m 21,9 C 30,3 C 0,0 km/h (0 Bft)
27/06/2012 20:20 30,1 C 62 % 1012,0 hPa 0,0 mm 0,0 km/h (0 Bft) NE 45 0 min 0 W/m 22,0 C 30,1 C 0,0 km/h (0 Bft)
27/06/2012 20:30 29,7 C 63 % 1011,9 hPa 0,0 mm 1,1 km/h (1 Bft) NE 45 0 min 0 W/m 21,9 C 29,7 C 4,3 km/h (1 Bft)
27/06/2012 20:40 29,4 C 64 % 1011,7 hPa 0,0 mm 0,0 km/h (0 Bft) NE 45 0 min 0 W/m 21,9 C 29,4 C 0,0 km/h (0 Bft)
27/06/2012 20:50 29,0 C 64 % 1011,6 hPa 0,0 mm 0,0 km/h (0 Bft) NE 45 0 min 0 W/m 21,5 C 29,0 C 0,0 km/h (0 Bft)
27/06/2012 21:00 28,6 C 65 % 1011,5 hPa 0,0 mm 0,0 km/h (0 Bft) NE 45 0 min 0 W/m 21,4 C 28,6 C 0,0 km/h (0 Bft)
27/06/2012 21:10 28,2 C 66 % 1011,3 hPa 0,0 mm 0,4 km/h (0 Bft) NE 45 0 min 0 W/m 21,2 C 28,2 C 0,4 km/h (0 Bft)
27/06/2012 21:20 27,7 C 66 % 1011,2 hPa 0,0 mm 0,0 km/h (0 Bft) NE 45 0 min 0 W/m 20,8 C 27,7 C 0,0 km/h (0 Bft)
27/06/2012 21:30 27,2 C 67 % 1011,0 hPa 0,0 mm 0,0 km/h (0 Bft) NE 45 0 min 0 W/m 20,5 C 27,2 C 0,0 km/h (0 Bft)
27/06/2012 21:40 26,8 C 68 % 1010,8 hPa 0,0 mm 3,6 km/h (1 Bft) NE 45 0 min 0 W/m 20,4 C 26,8 C 9,0 km/h (2 Bft)
27/06/2012 21:50 26,3 C 70 % 1010,5 hPa 0,0 mm 0,4 km/h (0 Bft) NE 45 0 min 0 W/m 20,4 C 26,3 C 0,4 km/h (0 Bft)
27/06/2012 22:00 25,9 C 71 % 1010,4 hPa 0,0 mm 1,1 km/h (1 Bft) E-NE 67 0 min 0 W/m 20,2 C 25,9 C 1,1 km/h (1 Bft)
27/06/2012 22:10 25,6 C 72 % 1010,5 hPa 0,0 mm 0,0 km/h (0 Bft) E-NE 67 0 min 0 W/m 20,2 C 25,6 C 2,9 km/h (1 Bft)
27/06/2012 22:20 25,3 C 72 % 1010,2 hPa 0,0 mm 0,0 km/h (0 Bft) E-NE 67 0 min 0 W/m 19,9 C 25,3 C 0,0 km/h (0 Bft)
27/06/2012 22:30 24,9 C 73 % 1010,3 hPa 0,0 mm 0,0 km/h (0 Bft) E-NE 67 0 min 0 W/m 19,7 C 24,9 C 0,0 km/h (0 Bft)
27/06/2012 22:40 24,8 C 74 % 1010,3 hPa 0,0 mm 4,0 km/h (1 Bft) E 90 0 min 0 W/m 19,8 C 24,8 C 8,3 km/h (2 Bft)
27/06/2012 22:50 24,6 C 74 % 1010,4 hPa 0,0 mm 0,4 km/h (0 Bft) E-SE 112 0 min 0 W/m 19,6 C 24,6 C 0,4 km/h (0 Bft)
27/06/2012 23:00 24,5 C 75 % 1010,6 hPa 0,0 mm 0,0 km/h (0 Bft) SE 135 0 min 0 W/m 19,8 C 24,5 C 1,4 km/h (1 Bft)
27/06/2012 23:10 24,4 C 75 % 1010,7 hPa 0,0 mm 0,4 km/h (0 Bft) SE 135 0 min 0 W/m 19,7 C 24,4 C 0,4 km/h (0 Bft)
27/06/2012 23:20 24,2 C 75 % 1010,5 hPa 0,0 mm 2,2 km/h (1 Bft) E 90 0 min 0 W/m 19,5 C 24,2 C 2,2 km/h (1 Bft)
27/06/2012 23:30 24,0 C 76 % 1010,5 hPa 0,0 mm 0,4 km/h (0 Bft) E-NE 67 0 min 0 W/m 19,5 C 24,0 C 4,3 km/h (1 Bft)
_ Min-Heure 06:30 18:40 22:20 - 23:00 - - - - 05:40 06:30 22:30
Minimum _ 15,7 C 49 % 1010,2 hPa - 0,0 km/h (0 Bft) - - - - 14,3 C 15,7 C 0,0 km/h (0 Bft)
_ Max-Heure 18:50 08:30 01:10 23:30 10:10 - - 23:30 23:30 19:10 18:50 10:10
Maximum _ 34,0 C 93 % 1021,7 hPa 0,0 mm 9,0 km/h
E-NE (2 Bft)
- - 0 min 0 W/m 23,2 C 34,0 C 11,9 km/h
E-NE (2 Bft)
Moyenne _ 24,5 C 73 % 1016,8 hPa #0,0 mm 1,6 km/h (1 Bft) NE - #0 min. 0 W/m 18,8 C 24,5 C 3,1 km/h (1 Bft)
Saint Bonnet de Bellac- Haute Vienne - France